Theta_e
340 340 340 340 340 339 338 337 336 337 338 338 338 339 338 338 338 337 334 334 334 333 333 333 332 331 329 327 327 326 327 329 331 333 333 334 334 335 334 333 331 330 328
334 337 339 338 337 338 340 340 340 340 340 339 339 340 340 340 339 339 337 336 336 336 334 333 333 333 333 333 332 330 330 329 329 329 329 329 330 330 331 332 334 334 334
331 333 333 333 333 334 335 337 338 339 339 339 338 339 339 338 337 337 337 337 337 337 337 336 335 334 334 334 333 333 332 332 331 330 330 331 330 330 330 330 331 331 332
326 322 323 325 327 329 329 330 332 334 335 337 338 338 338 338 338 338 338 338 338 338 338 337 336 335 335 334 333 333 332 332 331 331 331 331 331 331 331 331 330 330 330
315 318 318 319 320 321 320 320 323 326 331 327 328 329 333 335 338 338 339 339 339 339 338 337 336 335 335 334 333 333 332 332 331 330 330 330 330 330 330 330 330 331 331
310 311 311 312 313 313 312 313 316 319 322 318 317 321 324 326 326 332 336 335 332 334 332 332 333 335 333 333 332 332 332 332 331 331 331 332 332 331 330 330 331 332 331
306 307 307 307 308 308 308 308 310 311 314 312 314 312 315 321 325 330 326 326 328 323 324 322 321 321 323 321 325 327 327 327 328 329 330 330 331 331 332 331 330 330 331
304 304 305 305 305 305 305 305 307 307 308 310 310 312 315 313 322 309 317 317 314 311 310 308 309 309 310 317 311 312 324 320 318 322 324 324 325 326 329 331 331 331 330
302 303 303 304 304 304 304 304 304 305 307 308 309 308 311 313 308 312 309 311 307 307 305 305 305 306 306 309 312 315 314 311 314 318 318 315 319 319 321 324 327 329 331
301 302 303 303 303 304 304 304 304 305 306 307 307 305 307 306 308 312 308 305 306 305 304 305 304 306 306 308 309 308 309 310 312 311 307 309 312 317 317 316 318 322 326
301 301 302 302 303 303 303 304 304 304 304 305 305 304 305 305 306 306 307 305 303 303 304 302 305 305 305 305 306 306 308 306 304 302 305 306 311 312 312 314 317 318 320
301 301 301 301 301 302 302 302 303 302 302 302 302 303 303 303 304 302 303 302 302 301 300 303 303 303 303 305 303 304 301 301 301 301 300 303 306 306 308 311 312 315 317
300 300 300 300 301 301 301 301 301 301 301 301 301 301 301 302 302 301 300 300 300 299 302 301 301 302 303 301 301 300 300 300 299 299 299 299 299 302 305 307 309 312 313
299 299 299 299 299 299 299 300 300 299 299 300 300 300 299 300 299 298 297 297 299 300 299 299 300 301 300 300 299 299 300 299 298 297 297 300 301 303 305 305 307 307 309
298 299 299 299 299 298 297 298 298 298 298 298 298 296 296 296 295 295 295 296 296 299 299 298 299 299 298 298 299 298 299 299 297 297 298 298 300 300 299 300 300 302 305
298 298 298 298 298 297 297 297 297 296 297 296 295 295 294 294 294 294 294 294 294 295 297 296 296 296 297 297 298 298 299 298 299 298 297 298 297 296 296 296 298 299 302
297 297 297 297 296 296 296 296 295 295 295 295 294 293 293 293 293 293 293 293 293 293 295 294 294 295 296 296 297 297 297 298 298 299 298 298 296 296 295 295 296 296 296
296 296 296 296 295 295 295 294 295 295 295 295 294 293 293 292 292 292 292 292 292 292 292 294 294 294 294 294 294 295 295 296 297 297 297 296 296 296 296 296 295 297 300
296 295 296 295 295 294 294 293 294 294 294 294 294 293 293 292 292 291 291 291 291 291 291 292 293 293 293 293 293 293 294 294 295 295 295 295 296 296 296 296 296 297 296
295 295 295 295 294 293 292 292 293 294 294 294 293 293 293 292 291 290 290 290 290 290 290 291 291 291 292 291 291 292 292 292 293 293 293 295 296 297 297 297 296 295 295
294 294 294 294 293 291 288 288 291 293 293 293 293 293 292 290 289 288 287 288 289 289 289 289 290 291 291 291 291 291 291 291 291 292 294 296 294 295 295 296 296 296 298
294 294 294 293 293 290 286 286 288 292 292 292 292 292 292 291 289 288 286 287 288 288 288 289 289 290 289 289 290 290 290 291 292 292 293 293 293 293 294 295 296 296 296
294 293 293 293 292 289 286 286 288 291 292 291 291 291 291 290 290 286 286 288 289 289 289 288 288 288 288 289 290 290 290 290 291 291 292 293 294 295 296 294 295 295 297
294 293 292 292 292 288 286 286 288 291 291 291 291 290 289 289 287 284 286 288 289 289 289 286 287 287 288 289 289 290 290 290 291 291 292 293 294 295 295 295 297 300 301
293 292 291 291 291 290 286 286 288 290 291 291 290 290 287 287 284 283 286 287 287 287 285 285 286 287 288 289 289 289 290 290 291 291 291 293 292 292 293 295 298 299 299
291 291 290 290 288 290 286 285 286 289 289 290 290 289 287 284 283 283 284 286 286 285 284 285 286 287 288 288 288 289 290 291 291 291 291 291 292 292 293 295 295 297 298
Wind_Speed
2 2 2 3 4 5 6 7 8 9 10 12 12 13 15 15 16 17 18 18 22 20 20 20 21 22 23 24 26 27 28 28 29 29 30 30 31 31 31 32 33 33 34
3 3 3 3 4 5 6 8 10 11 12 13 14 15 16 16 17 18 19 20 22 24 23 23 24 24 25 26 28 28 29 30 31 32 33 34 35 36 37 37 37 36 36
5 4 3 4 6 7 8 9 10 12 14 15 16 18 18 19 20 20 21 22 22 23 23 24 26 26 26 28 29 30 31 32 34 35 36 37 38 39 40 40 41 41 41
5 6 5 6 7 6 7 8 8 10 12 12 15 17 20 21 21 22 23 22 22 23 24 24 24 27 30 28 27 27 28 30 33 35 37 38 40 41 42 44 45 44 43
10 8 8 8 8 8 9 10 9 9 10 12 15 18 18 20 21 21 21 21 21 20 20 21 22 23 24 24 27 28 29 30 31 32 34 36 37 39 40 42 44 45 45
12 9 9 10 10 9 10 11 11 10 9 14 18 17 16 18 18 16 14 13 15 15 16 19 18 20 21 20 23 27 28 28 30 33 35 36 39 39 40 41 41 42 42
13 11 10 11 10 12 12 14 12 11 11 17 12 16 14 10 8 8 11 13 12 16 18 20 21 23 24 27 27 25 27 29 32 32 32 34 36 39 42 42 42 42 42
13 13 11 11 11 9 13 14 14 13 10 15 13 12 5 13 4 22 7 11 16 19 21 23 23 24 25 24 27 28 22 22 27 29 28 29 31 33 36 40 43 43 43
13 13 12 12 11 11 12 13 14 14 11 11 13 9 5 5 20 4 14 11 22 21 24 24 23 25 27 25 24 24 29 35 34 32 32 33 31 32 32 33 37 40 43
12 12 12 11 11 11 12 11 12 12 12 12 8 11 5 6 5 8 11 25 20 25 25 20 29 22 25 23 24 27 30 33 36 41 44 35 34 32 32 33 35 34 37
11 11 11 11 11 11 11 12 12 13 12 11 10 11 9 11 7 12 12 19 27 25 20 30 22 27 25 26 25 27 32 39 42 39 37 37 31 32 34 34 33 35 36
9 11 11 11 12 12 12 12 12 13 12 11 11 11 11 12 14 10 13 21 25 24 33 19 27 26 27 24 33 33 42 39 41 41 46 39 39 40 38 35 35 34 32
8 11 11 12 12 11 10 10 11 11 12 11 12 11 12 12 14 16 19 22 21 31 16 29 28 25 25 33 34 37 41 42 45 42 43 48 43 40 41 39 36 35 34
9 9 9 10 10 10 11 10 10 11 11 11 12 12 12 13 14 15 17 22 16 18 24 30 26 21 34 34 40 41 39 41 43 48 45 42 41 40 36 38 33 31 35
8 8 9 9 10 11 12 11 11 13 12 12 12 13 13 13 15 15 17 19 18 13 16 30 34 31 35 37 39 41 42 42 48 42 40 42 40 40 42 45 45 42 39
9 9 9 9 10 12 13 12 10 12 12 12 12 14 14 14 15 16 17 19 21 23 12 35 37 39 38 38 37 38 40 44 42 42 40 38 43 48 50 47 43 46 45
9 9 8 9 10 11 12 11 10 12 12 12 13 13 14 15 16 16 18 20 22 25 24 36 36 38 40 40 39 38 38 39 40 41 44 44 46 47 44 47 48 50 50
9 9 9 9 10 10 10 11 11 11 12 13 13 13 14 15 16 17 20 21 23 26 28 33 38 39 38 39 40 40 40 38 39 42 44 50 49 47 44 47 45 41 36
9 9 9 8 8 9 10 11 10 11 11 11 12 14 14 16 18 20 22 24 25 27 29 29 37 37 38 37 39 41 39 39 39 40 43 46 45 45 44 41 39 40 45
10 9 8 7 7 9 10 12 11 10 10 11 12 13 14 16 18 21 23 25 27 29 29 29 31 34 35 39 35 33 45 37 40 41 44 38 38 39 38 41 43 42 40
9 8 7 6 6 9 11 14 11 10 11 12 12 13 14 17 20 19 25 27 28 29 29 29 29 32 31 35 34 35 35 44 38 40 38 31 41 41 38 38 37 34 30
9 7 6 6 6 7 12 14 9 9 10 12 14 15 16 16 22 24 27 28 25 26 30 29 30 29 34 36 35 36 36 32 18 31 37 42 38 39 37 34 36 39 38
9 7 6 5 5 7 13 14 10 8 9 11 12 14 17 19 21 27 28 26 24 24 24 25 30 33 37 38 40 39 36 35 34 44 39 33 36 36 33 36 42 41 38
8 6 5 4 4 6 14 15 13 8 9 10 12 13 16 19 22 27 28 26 26 26 26 31 31 35 36 39 37 37 39 35 34 36 33 12 28 33 36 37 35 30 36
8 7 5 5 5 5 13 14 14 10 11 12 12 13 15 20 25 28 26 27 29 28 32 32 32 33 33 35 37 37 33 30 21 34 32 22 28 36 32 31 25 28 28
8 7 6 6 8 5 11 13 14 10 12 13 14 15 17 22 25 27 24 26 30 33 36 36 33 32 32 35 37 34 36 29 27 19 26 26 28 19 6 14 31 33 28
Wind_Direction
353 338 328 319 314 309 295 289 285 286 284 282 280 278 279 279 279 279 280 282 287 289 287 287 287 287 284 281 279 278 278 277 278 277 277 277 277 276 276 274 273 271 270
2 343 326 323 322 319 306 297 290 286 283 283 282 281 279 278 279 280 279 281 281 286 286 284 284 284 284 284 282 280 279 279 278 277 276 276 277 277 276 274 273 272 272
18 21 5 354 341 330 325 310 301 292 287 283 284 285 282 279 278 276 278 280 284 287 289 293 292 290 287 286 286 285 284 283 281 280 278 278 278 276 275 274 273 271 269
47 41 36 16 355 349 340 333 325 314 302 299 294 289 288 284 282 281 279 280 282 285 286 287 292 293 294 292 290 289 290 290 289 286 283 281 279 279 279 278 276 273 270
48 43 36 24 15 12 7 356 348 343 325 320 311 299 292 288 288 289 285 287 288 288 293 294 297 299 303 307 306 306 304 302 299 295 292 289 286 284 283 281 278 277 276
50 54 42 36 32 24 15 9 2 355 340 336 319 306 302 294 293 293 306 319 317 329 335 337 327 314 318 322 318 312 311 314 313 308 302 296 291 289 287 285 282 280 278
48 49 45 37 33 30 22 16 7 359 356 349 330 325 307 291 315 348 322 318 330 334 330 331 327 320 315 311 311 311 308 312 315 314 309 303 297 293 290 290 285 282 279
53 48 50 42 38 30 26 22 20 8 9 11 355 311 333 317 105 325 325 333 344 336 332 329 324 321 319 312 311 317 328 321 318 315 314 309 303 298 294 291 288 287 283
55 52 48 45 39 38 30 24 22 20 5 17 28 16 338 344 333 34 328 349 334 337 331 326 326 322 317 316 315 313 315 314 315 315 313 323 321 315 308 298 288 287 285
55 51 47 44 42 38 34 28 25 24 22 17 13 16 11 328 331 322 325 325 337 331 329 329 324 326 322 318 317 315 310 311 309 312 314 317 316 315 316 311 305 296 284
56 51 49 46 45 43 37 34 31 30 27 19 9 360 351 331 326 314 304 327 323 327 326 324 322 323 323 318 318 316 315 312 311 322 323 320 314 313 314 314 311 308 300
55 52 50 49 46 44 39 34 34 30 27 21 8 360 354 349 333 326 309 314 316 322 321 319 323 321 318 318 318 313 314 318 321 315 313 314 310 310 308 306 308 307 305
64 52 53 51 49 46 41 36 30 24 19 16 10 0 351 343 333 324 320 315 317 317 311 321 320 317 317 317 314 312 314 313 316 316 315 307 309 310 309 306 304 301 302
72 63 61 60 54 46 35 34 31 23 17 14 10 3 351 345 339 333 322 320 316 314 314 318 318 321 314 314 312 313 312 311 311 312 315 316 313 314 313 310 305 306 301
80 72 68 64 55 42 35 36 30 21 19 13 8 3 357 345 337 332 325 322 316 313 315 318 324 319 315 312 311 312 312 311 311 313 313 311 307 306 305 302 302 301 299
87 79 72 66 54 40 37 35 29 21 23 18 10 3 354 344 338 332 329 324 318 309 301 314 316 316 315 312 312 313 311 312 311 311 311 311 306 304 304 304 299 295 292
89 80 79 71 55 47 40 35 32 28 25 17 11 1 353 347 341 337 332 325 320 315 304 306 312 315 315 316 317 316 313 312 311 310 310 308 305 305 302 302 297 294 293
101 91 88 77 56 48 39 33 30 26 20 14 7 0 355 350 347 342 336 330 324 320 313 308 313 317 316 318 316 315 314 311 310 308 307 305 304 302 299 300 302 301 294
107 96 89 80 58 43 33 28 27 25 16 9 3 360 355 352 349 345 340 334 328 324 319 311 309 315 315 319 319 317 313 311 309 308 308 306 304 300 296 295 298 292 290
112 102 91 89 63 46 32 23 22 20 12 7 0 355 353 352 350 344 340 333 329 325 321 315 310 312 316 318 317 317 314 315 312 313 306 307 308 305 299 296 296 294 291
115 104 99 92 74 48 29 21 20 11 6 2 357 356 353 348 342 341 338 333 330 326 326 320 314 314 318 320 321 319 311 312 315 311 307 318 310 305 304 303 301 298 294
112 109 112 105 83 41 32 26 29 6 0 355 352 353 352 347 344 337 339 333 329 324 322 318 317 317 317 317 317 316 313 315 317 318 313 308 307 303 300 301 300 305 298
131 119 118 111 89 44 26 30 47 7 355 353 353 351 349 347 348 341 338 335 329 326 323 327 317 315 313 319 318 314 313 309 306 308 311 305 309 303 305 305 307 308 307
146 136 111 111 89 27 16 29 44 5 357 357 356 354 352 350 346 348 340 335 331 329 327 328 321 315 315 317 320 316 311 307 309 313 320 300 316 312 313 307 317 326 330
145 136 126 103 81 40 6 19 26 3 360 359 357 354 356 353 350 352 346 338 333 331 330 330 324 326 328 329 331 328 324 322 322 325 331 325 318 312 310 303 318 320 330
143 148 119 98 81 56 353 16 25 5 356 356 359 357 354 350 358 351 349 342 339 337 335 332 333 334 335 334 335 334 330 324 322 324 331 324 321 332 313 310 321 329 334